Station Historical Data
Daily Summary for September 29, 2017 Units:  English    Metric   Both
« Previous Day
Next Day »
Daily Weekly Monthly Yearly Custom
  High: Low: Average:
Temperature: 85.9 °F 64.0 °F 74.2 °F
Dew Point: 68.3 °F 61.1 °F 64.5 °F
Humidity: 91% 51% 73%
Wind Speed: 10.0mph 1.0mph 5mph
Wind Gust: 10.0mph - -
Wind- - SW
Pressure: 30.06 in 29.96 in -
Precipitation: 0.00 in    
Historical Graphs
 
 
Tabular Data for September 29, 2017
Time Temperature Dew Point Pressure Wind Wind Speed Wind Gust Humidity Rainfall Rate (Hourly) solar Conditions
00:00 72.3 °F 66.5 °F 29.96 in NW 6.0 mph 6.0 mph 82% 0.00 in WeatherDisplay:10.37 W/m2 CLR
00:05 72.3 °F 66.5 °F 29.96 in NW 6.0 mph 6.0 mph 82% 0.00 in WeatherDisplay:10.37 W/m2 CLR
00:10 72.2 °F 66.4 °F 29.96 in NW 6.0 mph 6.0 mph 82% 0.00 in WeatherDisplay:10.37 W/m2 CLR
00:15 72.3 °F 66.5 °F 29.96 in NW 6.0 mph 6.0 mph 82% 0.00 in WeatherDisplay:10.37 W/m2 CLR
00:20 72.2 °F 66.4 °F 29.96 in NW 6.0 mph 6.0 mph 82% 0.00 in WeatherDisplay:10.37 W/m2 CLR
00:25 72.1 °F 66.3 °F 29.96 in NW 6.0 mph 6.0 mph 82% 0.00 in WeatherDisplay:10.37 W/m2 CLR
00:30 72.0 °F 66.2 °F 29.96 in NW 6.0 mph 6.0 mph 82% 0.00 in WeatherDisplay:10.37 W/m2 CLR
00:40 71.8 °F 66.0 °F 29.96 in NW 6.0 mph 6.0 mph 82% 0.00 in WeatherDisplay:10.37 W/m2 CLR
00:45 71.6 °F 66.2 °F 29.96 in NW 6.0 mph 6.0 mph 83% 0.00 in WeatherDisplay:10.37 W/m2 CLR
00:50 71.6 °F 66.2 °F 29.96 in NW 6.0 mph 6.0 mph 83% 0.00 in WeatherDisplay:10.37 W/m2 CLR
00:55 71.5 °F 66.1 °F 29.96 in NW 6.0 mph 6.0 mph 83% 0.00 in WeatherDisplay:10.37 W/m2 CLR
01:00 71.5 °F 66.1 °F 29.96 in NW 6.0 mph 6.0 mph 83% 0.00 in WeatherDisplay:10.37 W/m2 CLR
01:05 71.4 °F 65.9 °F 29.96 in NW 6.0 mph 6.0 mph 83% 0.00 in WeatherDisplay:10.37 W/m2 CLR
01:10 71.3 °F 65.9 °F 29.96 in NW 6.0 mph 6.0 mph 83% 0.00 in WeatherDisplay:10.37 W/m2 CLR
01:15 71.2 °F 65.8 °F 29.96 in NW 5.0 mph 6.0 mph 83% 0.00 in WeatherDisplay:10.37 W/m2 CLR
01:20 71.2 °F 65.8 °F 29.96 in NW 5.0 mph 5.0 mph 83% 0.00 in WeatherDisplay:10.37 W/m2 CLR
01:25 71.1 °F 65.7 °F 29.96 in NW 5.0 mph 5.0 mph 83% 0.00 in WeatherDisplay:10.37 W/m2 CLR
01:30 71.1 °F 65.7 °F 29.96 in NW 5.0 mph 5.0 mph 83% 0.00 in WeatherDisplay:10.37 W/m2 CLR
01:35 71.1 °F 65.7 °F 29.96 in NW 5.0 mph 5.0 mph 83% 0.00 in WeatherDisplay:10.37 W/m2 CLR
01:40 70.9 °F 65.5 °F 29.96 in NW 5.0 mph 5.0 mph 83% 0.00 in WeatherDisplay:10.37 W/m2 CLR
01:45 70.8 °F 65.4 °F 29.96 in NW 5.0 mph 5.0 mph 83% 0.00 in WeatherDisplay:10.37 W/m2 CLR
01:50 70.7 °F 65.2 °F 29.96 in NW 5.0 mph 5.0 mph 83% 0.00 in WeatherDisplay:10.37 W/m2 CLR
01:55 70.5 °F 65.1 °F 29.96 in NW 5.0 mph 5.0 mph 83% 0.00 in WeatherDisplay:10.37 W/m2 CLR
02:00 70.2 °F 65.2 °F 29.96 in NW 5.0 mph 5.0 mph 84% 0.00 in WeatherDisplay:10.37 W/m2 CLR
02:05 70.1 °F 65.0 °F 29.96 in NW 5.0 mph 5.0 mph 84% 0.00 in WeatherDisplay:10.37 W/m2 CLR
02:10 69.9 °F 64.8 °F 29.97 in NW 5.0 mph 5.0 mph 84% 0.00 in WeatherDisplay:10.37 W/m2 CLR
02:15 69.8 °F 64.7 °F 29.97 in WNW 5.0 mph 5.0 mph 84% 0.00 in WeatherDisplay:10.37 W/m2 CLR
02:20 69.7 °F 64.6 °F 29.97 in West 5.0 mph 5.0 mph 84% 0.00 in WeatherDisplay:10.37 W/m2 CLR
02:25 69.6 °F 64.5 °F 29.97 in West 5.0 mph 5.0 mph 84% 0.00 in WeatherDisplay:10.37 W/m2 CLR
02:30 69.5 °F 64.5 °F 29.97 in West 5.0 mph 5.0 mph 84% 0.00 in WeatherDisplay:10.37 W/m2 CLR
02:35 69.4 °F 64.4 °F 29.97 in West 5.0 mph 5.0 mph 84% 0.00 in WeatherDisplay:10.37 W/m2 CLR
02:40 69.3 °F 64.3 °F 29.97 in West 5.0 mph 5.0 mph 84% 0.00 in WeatherDisplay:10.37 W/m2 CLR
02:45 69.2 °F 64.1 °F 29.97 in West 5.0 mph 5.0 mph 84% 0.00 in WeatherDisplay:10.37 W/m2 CLR
02:50 69.1 °F 63.7 °F 29.96 in West 5.0 mph 5.0 mph 83% 0.00 in WeatherDisplay:10.37 W/m2 CLR
02:55 69.1 °F 64.1 °F 29.97 in West 5.0 mph 5.0 mph 84% 0.00 in WeatherDisplay:10.37 W/m2 CLR
03:00 68.9 °F 63.9 °F 29.96 in West 5.0 mph 5.0 mph 84% 0.00 in WeatherDisplay:10.37 W/m2 CLR
03:05 68.7 °F 64.0 °F 29.96 in West 5.0 mph 5.0 mph 85% 0.00 in WeatherDisplay:10.37 W/m2 CLR
03:10 68.4 °F 63.7 °F 29.96 in West 5.0 mph 5.0 mph 85% 0.00 in WeatherDisplay:10.37 W/m2 CLR
03:15 68.1 °F 63.8 °F 29.96 in West 5.0 mph 5.0 mph 86% 0.00 in WeatherDisplay:10.37 W/m2 CLR
03:20 67.9 °F 63.5 °F 29.96 in West 5.0 mph 5.0 mph 86% 0.00 in WeatherDisplay:10.37 W/m2 CLR
03:25 67.6 °F 63.3 °F 29.96 in West 5.0 mph 5.0 mph 86% 0.00 in WeatherDisplay:10.37 W/m2 CLR
03:30 67.4 °F 63.4 °F 29.96 in West 5.0 mph 5.0 mph 87% 0.00 in WeatherDisplay:10.37 W/m2 CLR
03:35 67.3 °F 63.3 °F 29.96 in West 5.0 mph 5.0 mph 87% 0.00 in WeatherDisplay:10.37 W/m2 CLR
03:40 67.1 °F 63.1 °F 29.96 in West 5.0 mph 5.0 mph 87% 0.00 in WeatherDisplay:10.37 W/m2 CLR
03:45 67.0 °F 63.0 °F 29.96 in West 5.0 mph 5.0 mph 87% 0.00 in WeatherDisplay:10.37 W/m2 CLR
03:50 66.8 °F 62.8 °F 29.96 in West 5.0 mph 5.0 mph 87% 0.00 in WeatherDisplay:10.37 W/m2 CLR
03:55 66.7 °F 62.7 °F 29.96 in West 5.0 mph 5.0 mph 87% 0.00 in WeatherDisplay:10.37 W/m2 CLR
04:00 66.6 °F 62.9 °F 29.96 in West 5.0 mph 5.0 mph 88% 0.00 in WeatherDisplay:10.37 W/m2 CLR
04:05 66.6 °F 62.9 °F 29.96 in West 5.0 mph 5.0 mph 88% 0.00 in WeatherDisplay:10.37 W/m2 CLR
04:10 66.5 °F 62.8 °F 29.96 in West 5.0 mph 5.0 mph 88% 0.00 in WeatherDisplay:10.37 W/m2 CLR
04:15 66.4 °F 62.7 °F 29.96 in West 6.0 mph 6.0 mph 88% 0.00 in WeatherDisplay:10.37 W/m2 CLR
04:20 66.3 °F 62.7 °F 29.96 in West 6.0 mph 6.0 mph 88% 0.00 in WeatherDisplay:10.37 W/m2 CLR
04:25 66.2 °F 62.5 °F 29.96 in West 6.0 mph 6.0 mph 88% 0.00 in WeatherDisplay:10.37 W/m2 CLR
04:30 66.2 °F 62.5 °F 29.96 in West 6.0 mph 6.0 mph 88% 0.00 in WeatherDisplay:10.37 W/m2 CLR
04:35 66.1 °F 62.4 °F 29.96 in West 6.0 mph 6.0 mph 88% 0.00 in WeatherDisplay:10.37 W/m2 CLR
04:40 66.0 °F 62.3 °F 29.96 in West 6.0 mph 6.0 mph 88% 0.00 in WeatherDisplay:10.37 W/m2 CLR
04:50 65.8 °F 62.5 °F 29.97 in West 6.0 mph 6.0 mph 89% 0.00 in WeatherDisplay:10.37 W/m2 CLR
04:55 65.7 °F 62.4 °F 29.97 in West 6.0 mph 6.0 mph 89% 0.00 in WeatherDisplay:10.37 W/m2 CLR
05:00 65.7 °F 62.4 °F 29.97 in West 6.0 mph 6.0 mph 89% 0.00 in WeatherDisplay:10.37 W/m2 CLR
05:05 65.6 °F 62.3 °F 29.97 in West 6.0 mph 6.0 mph 89% 0.00 in WeatherDisplay:10.37 W/m2 CLR
05:10 65.5 °F 62.2 °F 29.97 in West 6.0 mph 6.0 mph 89% 0.00 in WeatherDisplay:10.37 W/m2 CLR
05:15 65.5 °F 62.2 °F 29.97 in West 3.0 mph 6.0 mph 89% 0.00 in WeatherDisplay:10.37 W/m2 CLR
05:20 65.4 °F 62.1 °F 29.97 in West 3.0 mph 3.0 mph 89% 0.00 in WeatherDisplay:10.37 W/m2 CLR
05:25 65.3 °F 62.0 °F 29.98 in West 3.0 mph 3.0 mph 89% 0.00 in WeatherDisplay:10.37 W/m2 CLR
05:30 65.2 °F 61.9 °F 29.98 in West 3.0 mph 3.0 mph 89% 0.00 in WeatherDisplay:10.37 W/m2 CLR
05:35 65.2 °F 61.9 °F 29.98 in West 3.0 mph 3.0 mph 89% 0.00 in WeatherDisplay:10.37 W/m2 CLR
05:40 65.1 °F 61.8 °F 29.98 in West 3.0 mph 3.0 mph 89% 0.00 in WeatherDisplay:10.37 W/m2 CLR
05:45 65.0 °F 61.7 °F 29.98 in West 3.0 mph 3.0 mph 89% 0.00 in WeatherDisplay:10.37 W/m2 CLR
05:50 65.0 °F 62.0 °F 29.98 in West 3.0 mph 3.0 mph 90% 0.00 in WeatherDisplay:10.37 W/m2 CLR
05:55 64.9 °F 61.9 °F 29.98 in West 3.0 mph 3.0 mph 90% 0.00 in WeatherDisplay:10.37 W/m2 CLR
06:00 64.8 °F 61.8 °F 29.98 in West 3.0 mph 3.0 mph 90% 0.00 in WeatherDisplay:10.37 W/m2 CLR
06:05 64.7 °F 61.7 °F 29.98 in West 3.0 mph 3.0 mph 90% 0.00 in WeatherDisplay:10.37 W/m2 CLR
06:10 64.7 °F 61.7 °F 29.98 in West 3.0 mph 3.0 mph 90% 0.00 in WeatherDisplay:10.37 W/m2 CLR
06:15 64.6 °F 61.6 °F 29.98 in West 5.0 mph 5.0 mph 90% 0.00 in WeatherDisplay:10.37 W/m2 CLR
06:20 64.6 °F 61.6 °F 29.98 in West 5.0 mph 5.0 mph 90% 0.00 in WeatherDisplay:10.37 W/m2 CLR
06:25 64.5 °F 61.5 °F 29.99 in West 5.0 mph 5.0 mph 90% 0.00 in WeatherDisplay:10.37 W/m2 CLR
06:30 64.5 °F 61.5 °F 29.99 in West 5.0 mph 5.0 mph 90% 0.00 in WeatherDisplay:10.37 W/m2 CLR
06:35 64.4 °F 61.4 °F 29.99 in West 5.0 mph 5.0 mph 90% 0.00 in WeatherDisplay:10.37 W/m2 CLR
06:40 64.3 °F 61.3 °F 29.99 in West 5.0 mph 5.0 mph 90% 0.00 in WeatherDisplay:10.37 W/m2 CLR
06:45 64.3 °F 61.3 °F 29.99 in West 5.0 mph 5.0 mph 90% 0.00 in WeatherDisplay:10.37 W/m2 CLR
06:50 64.2 °F 61.2 °F 29.99 in West 5.0 mph 5.0 mph 90% 0.00 in WeatherDisplay:10.37 W/m2 CLR
06:55 64.2 °F 61.2 °F 30.00 in West 5.0 mph 5.0 mph 90% 0.00 in WeatherDisplay:10.37 W/m2 CLR
07:00 64.1 °F 61.1 °F 30.00 in West 5.0 mph 5.0 mph 90% 0.00 in WeatherDisplay:10.37 W/m2 CLR
07:05 64.1 °F 61.1 °F 30.00 in West 5.0 mph 5.0 mph 90% 0.00 in WeatherDisplay:10.37 W/m2 CLR
07:10 64.1 °F 61.1 °F 30.00 in West 5.0 mph 5.0 mph 90% 0.00 in WeatherDisplay:10.37 W/m2 CLR
07:15 64.1 °F 61.1 °F 30.00 in WNW 3.0 mph 5.0 mph 90% 0.00 in WeatherDisplay:10.37 W/m2 CLR
07:20 64.1 °F 61.1 °F 30.00 in NW 3.0 mph 3.0 mph 90% 0.00 in WeatherDisplay:10.37 W/m2 CLR
07:30 64.0 °F 61.3 °F 30.00 in NW 3.0 mph 3.0 mph 91% 0.00 in WeatherDisplay:10.37 W/m2 CLR
07:35 64.0 °F 61.3 °F 30.00 in NW 3.0 mph 3.0 mph 91% 0.00 in WeatherDisplay:10.37 W/m2 CLR
07:45 64.0 °F 61.3 °F 30.01 in NW 3.0 mph 3.0 mph 91% 0.00 in WeatherDisplay:10.37 W/m2 CLR
07:50 64.0 °F 61.3 °F 30.01 in NW 3.0 mph 3.0 mph 91% 0.00 in WeatherDisplay:10.37 W/m2 CLR
07:55 64.1 °F 61.4 °F 30.01 in NW 3.0 mph 3.0 mph 91% 0.00 in WeatherDisplay:10.37 W/m2 CLR
08:00 64.2 °F 61.5 °F 30.01 in NW 3.0 mph 3.0 mph 91% 0.00 in WeatherDisplay:10.37 W/m2 CLR
08:05 64.4 °F 61.7 °F 30.02 in NW 3.0 mph 3.0 mph 91% 0.00 in WeatherDisplay:10.37 W/m2 CLR
08:10 64.5 °F 61.8 °F 30.02 in NW 3.0 mph 3.0 mph 91% 0.00 in WeatherDisplay:10.37 W/m2 CLR
08:15 64.7 °F 61.7 °F 30.02 in NNW 2.0 mph 3.0 mph 90% 0.00 in WeatherDisplay:10.37 W/m2 FEW
08:20 64.9 °F 61.9 °F 30.02 in North 2.0 mph 2.0 mph 90% 0.00 in WeatherDisplay:10.37 W/m2 FEW
08:25 65.1 °F 62.1 °F 30.02 in North 2.0 mph 2.0 mph 90% 0.00 in WeatherDisplay:10.37 W/m2 FEW
08:30 65.3 °F 62.3 °F 30.02 in North 2.0 mph 2.0 mph 90% 0.00 in WeatherDisplay:10.37 W/m2 FEW
08:35 65.7 °F 62.3 °F 30.03 in North 2.0 mph 2.0 mph 89% 0.00 in WeatherDisplay:10.37 W/m2 FEW
08:40 66.0 °F 62.6 °F 30.03 in North 2.0 mph 2.0 mph 89% 0.00 in WeatherDisplay:10.37 W/m2 FEW
08:45 66.2 °F 62.6 °F 30.03 in North 2.0 mph 2.0 mph 88% 0.00 in WeatherDisplay:10.37 W/m2 FEW
08:50 66.6 °F 62.9 °F 30.03 in North 2.0 mph 2.0 mph 88% 0.00 in WeatherDisplay:10.37 W/m2 FEW
08:55 66.9 °F 63.2 °F 30.03 in North 2.0 mph 2.0 mph 88% 0.00 in WeatherDisplay:10.37 W/m2 FEW
09:00 67.3 °F 63.6 °F 30.03 in North 2.0 mph 2.0 mph 88% 0.00 in WeatherDisplay:10.37 W/m2 FEW
09:05 67.6 °F 63.6 °F 30.03 in North 2.0 mph 2.0 mph 87% 0.00 in WeatherDisplay:10.37 W/m2 FEW
09:10 68.0 °F 64.0 °F 30.03 in North 2.0 mph 2.0 mph 87% 0.00 in WeatherDisplay:10.37 W/m2 FEW
09:15 68.5 °F 64.1 °F 30.03 in North 5.0 mph 5.0 mph 86% 0.00 in WeatherDisplay:10.37 W/m2 FEW
09:20 69.0 °F 64.6 °F 30.03 in North 5.0 mph 5.0 mph 86% 0.00 in WeatherDisplay:10.37 W/m2 FEW
09:25 69.3 °F 64.6 °F 30.03 in North 5.0 mph 5.0 mph 85% 0.00 in WeatherDisplay:10.37 W/m2 FEW
09:30 69.7 °F 65.0 °F 30.03 in North 5.0 mph 5.0 mph 85% 0.00 in WeatherDisplay:10.37 W/m2 FEW
09:35 70.4 °F 64.7 °F 30.03 in North 5.0 mph 5.0 mph 82% 0.00 in WeatherDisplay:10.37 W/m2 FEW
09:40 71.0 °F 64.5 °F 30.03 in North 5.0 mph 5.0 mph 80% 0.00 in WeatherDisplay:10.37 W/m2 FEW
09:45 71.3 °F 64.9 °F 30.03 in North 5.0 mph 5.0 mph 80% 0.00 in WeatherDisplay:10.37 W/m2 FEW
09:50 71.7 °F 64.9 °F 30.03 in North 5.0 mph 5.0 mph 79% 0.00 in WeatherDisplay:10.37 W/m2 FEW
09:55 72.1 °F 64.8 °F 30.03 in North 5.0 mph 5.0 mph 78% 0.00 in WeatherDisplay:10.37 W/m2 FEW
10:00 72.4 °F 64.4 °F 30.03 in North 5.0 mph 5.0 mph 76% 0.00 in WeatherDisplay:10.37 W/m2 FEW
10:05 72.7 °F 65.1 °F 30.03 in North 5.0 mph 5.0 mph 77% 0.00 in WeatherDisplay:10.37 W/m2 FEW
10:10 73.1 °F 64.3 °F 30.03 in North 5.0 mph 5.0 mph 74% 0.00 in WeatherDisplay:10.37 W/m2 FEW
10:15 73.4 °F 64.6 °F 30.04 in NE 9.0 mph 9.0 mph 74% 0.00 in WeatherDisplay:10.37 W/m2 FEW
10:20 73.7 °F 64.9 °F 30.04 in ENE 9.0 mph 9.0 mph 74% 0.00 in WeatherDisplay:10.37 W/m2 FEW
10:25 74.0 °F 64.0 °F 30.04 in ENE 9.0 mph 9.0 mph 71% 0.00 in WeatherDisplay:10.37 W/m2 FEW
10:30 74.2 °F 63.8 °F 30.04 in ENE 9.0 mph 9.0 mph 70% 0.00 in WeatherDisplay:10.37 W/m2 FEW
10:35 74.5 °F 63.6 °F 30.04 in ENE 9.0 mph 9.0 mph 69% 0.00 in WeatherDisplay:10.37 W/m2 FEW
10:40 74.7 °F 63.8 °F 30.04 in ENE 9.0 mph 9.0 mph 69% 0.00 in WeatherDisplay:10.37 W/m2 FEW
10:45 75.1 °F 63.8 °F 30.04 in ENE 9.0 mph 9.0 mph 68% 0.00 in WeatherDisplay:10.37 W/m2 FEW
10:50 75.5 °F 62.9 °F 30.04 in ENE 9.0 mph 9.0 mph 65% 0.00 in WeatherDisplay:10.37 W/m2 FEW
11:00 76.2 °F 63.6 °F 30.04 in ENE 9.0 mph 9.0 mph 65% 0.00 in WeatherDisplay:10.37 W/m2 FEW
11:05 76.7 °F 63.6 °F 30.04 in ENE 9.0 mph 9.0 mph 64% 0.00 in WeatherDisplay:10.37 W/m2 FEW
11:10 77.2 °F 63.6 °F 30.05 in ENE 9.0 mph 9.0 mph 63% 0.00 in WeatherDisplay:10.37 W/m2 FEW
11:15 78.1 °F 64.5 °F 30.04 in East 10.0 mph 10.0 mph 63% 0.00 in WeatherDisplay:10.37 W/m2 CLR
11:20 78.5 °F 63.5 °F 30.04 in East 10.0 mph 10.0 mph 60% 0.00 in WeatherDisplay:10.37 W/m2 CLR
11:30 79.2 °F 64.6 °F 30.04 in East 10.0 mph 10.0 mph 61% 0.00 in WeatherDisplay:10.37 W/m2 CLR
11:40 80.3 °F 65.2 °F 30.04 in East 10.0 mph 10.0 mph 60% 0.00 in WeatherDisplay:10.37 W/m2 CLR
11:45 80.8 °F 64.1 °F 30.04 in East 10.0 mph 10.0 mph 57% 0.00 in WeatherDisplay:10.37 W/m2 CLR
11:50 80.8 °F 64.6 °F 30.04 in East 10.0 mph 10.0 mph 58% 0.00 in WeatherDisplay:10.37 W/m2 CLR
11:55 81.3 °F 65.1 °F 30.03 in East 10.0 mph 10.0 mph 58% 0.00 in WeatherDisplay:10.37 W/m2 CLR
12:00 81.6 °F 64.4 °F 30.03 in East 10.0 mph 10.0 mph 56% 0.00 in WeatherDisplay:10.37 W/m2 CLR
12:05 82.3 °F 64.5 °F 30.03 in East 10.0 mph 10.0 mph 55% 0.00 in WeatherDisplay:10.37 W/m2 CLR
12:10 82.3 °F 65.1 °F 30.03 in East 10.0 mph 10.0 mph 56% 0.00 in WeatherDisplay:10.37 W/m2 CLR
12:15 82.1 °F 63.3 °F 30.03 in East 3.0 mph 10.0 mph 53% 0.00 in WeatherDisplay:10.37 W/m2 CLR
12:20 81.7 °F 63.9 °F 30.03 in ENE 3.0 mph 3.0 mph 55% 0.00 in WeatherDisplay:10.37 W/m2 CLR
12:25 82.0 °F 64.8 °F 30.03 in ENE 3.0 mph 3.0 mph 56% 0.00 in WeatherDisplay:10.37 W/m2 CLR
12:30 82.5 °F 65.2 °F 30.03 in ENE 3.0 mph 3.0 mph 56% 0.00 in WeatherDisplay:10.37 W/m2 CLR
12:35 82.8 °F 65.0 °F 30.03 in ENE 3.0 mph 3.0 mph 55% 0.00 in WeatherDisplay:10.37 W/m2 CLR
12:40 82.8 °F 65.0 °F 30.03 in ENE 3.0 mph 3.0 mph 55% 0.00 in WeatherDisplay:10.37 W/m2 CLR
12:45 83.0 °F 64.7 °F 30.03 in ENE 3.0 mph 3.0 mph 54% 0.00 in WeatherDisplay:10.37 W/m2 CLR
12:50 83.4 °F 64.5 °F 30.02 in ENE 3.0 mph 3.0 mph 53% 0.00 in WeatherDisplay:10.37 W/m2 CLR
12:55 83.6 °F 65.2 °F 30.02 in ENE 3.0 mph 3.0 mph 54% 0.00 in WeatherDisplay:10.37 W/m2 CLR
13:00 83.8 °F 65.4 °F 30.02 in ENE 3.0 mph 3.0 mph 54% 0.00 in WeatherDisplay:10.37 W/m2 CLR
13:05 83.6 °F 64.6 °F 30.02 in ENE 3.0 mph 3.0 mph 53% 0.00 in WeatherDisplay:10.37 W/m2 CLR
13:10 83.3 °F 65.5 °F 30.02 in ENE 3.0 mph 3.0 mph 55% 0.00 in WeatherDisplay:10.37 W/m2 CLR
13:15 82.8 °F 64.4 °F 30.01 in ESE 5.0 mph 5.0 mph 54% 0.00 in WeatherDisplay:10.37 W/m2 CLR
13:20 82.3 °F 65.0 °F 30.01 in SE 5.0 mph 5.0 mph 56% 0.00 in WeatherDisplay:10.37 W/m2 CLR
13:25 82.4 °F 65.1 °F 30.01 in SE 5.0 mph 5.0 mph 56% 0.00 in WeatherDisplay:10.37 W/m2 CLR
13:30 82.5 °F 65.7 °F 30.01 in SE 5.0 mph 5.0 mph 57% 0.00 in WeatherDisplay:10.37 W/m2 CLR
13:35 82.6 °F 65.9 °F 30.01 in SE 5.0 mph 5.0 mph 57% 0.00 in WeatherDisplay:10.37 W/m2 CLR
13:40 82.9 °F 66.1 °F 30.01 in SE 5.0 mph 5.0 mph 57% 0.00 in WeatherDisplay:10.37 W/m2 CLR
13:45 83.1 °F 65.8 °F 30.01 in SE 5.0 mph 5.0 mph 56% 0.00 in WeatherDisplay:10.37 W/m2 CLR
13:50 83.7 °F 65.3 °F 30.00 in SE 5.0 mph 5.0 mph 54% 0.00 in WeatherDisplay:10.37 W/m2 CLR
13:55 84.1 °F 65.7 °F 30.00 in SE 5.0 mph 5.0 mph 54% 0.00 in WeatherDisplay:10.37 W/m2 CLR
14:00 84.4 °F 65.9 °F 30.00 in SE 5.0 mph 5.0 mph 54% 0.00 in WeatherDisplay:10.37 W/m2 CLR
14:05 84.8 °F 66.9 °F 30.00 in SE 5.0 mph 5.0 mph 55% 0.00 in WeatherDisplay:10.37 W/m2 CLR
14:10 85.2 °F 65.0 °F 30.00 in SE 5.0 mph 5.0 mph 51% 0.00 in WeatherDisplay:10.37 W/m2 CLR
14:15 85.2 °F 65.6 °F 30.00 in East 1.0 mph 5.0 mph 52% 0.00 in WeatherDisplay:10.37 W/m2 FEW
14:20 85.1 °F 65.5 °F 30.00 in NE 1.0 mph 1.0 mph 52% 0.00 in WeatherDisplay:10.37 W/m2 FEW
14:25 84.9 °F 65.9 °F 30.00 in NE 1.0 mph 1.0 mph 53% 0.00 in WeatherDisplay:10.37 W/m2 FEW
14:30 84.8 °F 65.8 °F 30.00 in NE 1.0 mph 1.0 mph 53% 0.00 in WeatherDisplay:10.37 W/m2 FEW
14:40 85.4 °F 66.8 °F 29.99 in NE 1.0 mph 1.0 mph 54% 0.00 in WeatherDisplay:10.37 W/m2 FEW
14:45 85.4 °F 66.3 °F 29.99 in NE 1.0 mph 1.0 mph 53% 0.00 in WeatherDisplay:10.37 W/m2 FEW
14:50 85.6 °F 66.0 °F 29.99 in NE 1.0 mph 1.0 mph 52% 0.00 in WeatherDisplay:10.37 W/m2 FEW
14:55 85.4 °F 66.4 °F 29.99 in NE 1.0 mph 1.0 mph 53% 0.00 in WeatherDisplay:10.37 W/m2 FEW
15:00 85.3 °F 65.7 °F 29.99 in NE 1.0 mph 1.0 mph 52% 0.00 in WeatherDisplay:10.37 W/m2 FEW
15:05 85.6 °F 65.9 °F 29.99 in NE 1.0 mph 1.0 mph 52% 0.00 in WeatherDisplay:10.37 W/m2 FEW
15:10 85.9 °F 66.8 °F 29.99 in NE 1.0 mph 1.0 mph 53% 0.00 in WeatherDisplay:10.37 W/m2 FEW
15:15 85.6 °F 66.0 °F 29.98 in WNW 3.0 mph 3.0 mph 52% 0.00 in WeatherDisplay:10.37 W/m2 FEW
15:20 85.3 °F 66.8 °F 29.98 in West 3.0 mph 3.0 mph 54% 0.00 in WeatherDisplay:10.37 W/m2 FEW
15:25 84.8 °F 65.3 °F 29.98 in West 3.0 mph 3.0 mph 52% 0.00 in WeatherDisplay:10.37 W/m2 FEW
15:30 84.5 °F 66.0 °F 29.98 in West 3.0 mph 3.0 mph 54% 0.00 in WeatherDisplay:10.37 W/m2 FEW
15:35 84.4 °F 66.0 °F 29.98 in West 3.0 mph 3.0 mph 54% 0.00 in WeatherDisplay:10.37 W/m2 FEW
15:40 84.3 °F 65.9 °F 29.98 in West 3.0 mph 3.0 mph 54% 0.00 in WeatherDisplay:10.37 W/m2 FEW
15:45 84.3 °F 65.3 °F 29.98 in West 3.0 mph 3.0 mph 53% 0.00 in WeatherDisplay:10.37 W/m2 FEW
15:50 84.3 °F 66.3 °F 29.98 in West 3.0 mph 3.0 mph 55% 0.00 in WeatherDisplay:10.37 W/m2 FEW
15:55 83.9 °F 67.0 °F 29.98 in West 3.0 mph 3.0 mph 57% 0.00 in WeatherDisplay:10.37 W/m2 FEW
16:00 83.2 °F 66.4 °F 29.98 in West 3.0 mph 3.0 mph 57% 0.00 in WeatherDisplay:10.37 W/m2 FEW
16:05 82.5 °F 67.7 °F 29.98 in West 3.0 mph 3.0 mph 61% 0.00 in WeatherDisplay:10.37 W/m2 FEW
16:10 82.0 °F 67.2 °F 29.98 in West 3.0 mph 3.0 mph 61% 0.00 in WeatherDisplay:10.37 W/m2 FEW
16:15 81.8 °F 67.5 °F 29.98 in North 3.0 mph 3.0 mph 62% 0.00 in WeatherDisplay:10.37 W/m2 SCT
16:20 82.0 °F 67.7 °F 29.98 in NE 3.0 mph 3.0 mph 62% 0.00 in WeatherDisplay:10.37 W/m2 SCT
16:25 82.8 °F 66.0 °F 29.97 in NE 3.0 mph 3.0 mph 57% 0.00 in WeatherDisplay:10.37 W/m2 SCT
16:30 83.5 °F 66.1 °F 29.97 in NE 3.0 mph 3.0 mph 56% 0.00 in WeatherDisplay:10.37 W/m2 SCT
16:35 84.0 °F 67.7 °F 29.97 in NE 3.0 mph 3.0 mph 58% 0.00 in WeatherDisplay:10.37 W/m2 SCT
16:40 84.3 °F 66.4 °F 29.97 in NE 3.0 mph 3.0 mph 55% 0.00 in WeatherDisplay:10.37 W/m2 SCT
16:45 84.2 °F 66.3 °F 29.97 in NE 3.0 mph 3.0 mph 55% 0.00 in WeatherDisplay:10.37 W/m2 SCT
16:50 83.9 °F 66.5 °F 29.97 in NE 3.0 mph 3.0 mph 56% 0.00 in WeatherDisplay:10.37 W/m2 SCT
16:55 83.7 °F 67.4 °F 29.97 in NE 3.0 mph 3.0 mph 58% 0.00 in WeatherDisplay:10.37 W/m2 SCT
17:00 83.4 °F 68.1 °F 29.97 in NE 3.0 mph 3.0 mph 60% 0.00 in WeatherDisplay:10.37 W/m2 SCT
17:05 83.1 °F 68.3 °F 29.97 in NE 3.0 mph 3.0 mph 61% 0.00 in WeatherDisplay:10.37 W/m2 SCT
17:10 83.0 °F 68.2 °F 29.97 in NE 3.0 mph 3.0 mph 61% 0.00 in WeatherDisplay:10.37 W/m2 SCT
17:15 83.0 °F 66.2 °F 29.97 in NNE 3.0 mph 3.0 mph 57% 0.00 in WeatherDisplay:10.37 W/m2 BKN
17:20 83.0 °F 66.7 °F 29.97 in NNE 3.0 mph 3.0 mph 58% 0.00 in WeatherDisplay:10.37 W/m2 BKN
17:25 83.0 °F 67.7 °F 29.97 in NNE 3.0 mph 3.0 mph 60% 0.00 in WeatherDisplay:10.37 W/m2 BKN
17:30 82.9 °F 68.1 °F 29.97 in NNE 3.0 mph 3.0 mph 61% 0.00 in WeatherDisplay:10.37 W/m2 BKN
17:35 82.7 °F 67.4 °F 29.97 in NNE 3.0 mph 3.0 mph 60% 0.00 in WeatherDisplay:10.37 W/m2 BKN
17:40 82.7 °F 66.4 °F 29.97 in NNE 3.0 mph 3.0 mph 58% 0.00 in WeatherDisplay:10.37 W/m2 BKN
17:45 82.7 °F 66.4 °F 29.97 in NNE 3.0 mph 3.0 mph 58% 0.00 in WeatherDisplay:10.37 W/m2 BKN
17:50 82.7 °F 66.9 °F 29.97 in NNE 3.0 mph 3.0 mph 59% 0.00 in WeatherDisplay:10.37 W/m2 BKN
17:55 82.5 °F 67.2 °F 29.98 in NNE 3.0 mph 3.0 mph 60% 0.00 in WeatherDisplay:10.37 W/m2 BKN
18:00 82.3 °F 66.5 °F 29.98 in NNE 3.0 mph 3.0 mph 59% 0.00 in WeatherDisplay:10.37 W/m2 BKN
18:05 82.0 °F 67.3 °F 29.98 in NNE 3.0 mph 3.0 mph 61% 0.00 in WeatherDisplay:10.37 W/m2 BKN
18:10 81.8 °F 66.1 °F 29.98 in NNE 3.0 mph 3.0 mph 59% 0.00 in WeatherDisplay:10.37 W/m2 BKN
18:15 81.6 °F 66.4 °F 29.98 in North 5.0 mph 5.0 mph 60% 0.00 in WeatherDisplay:10.37 W/m2 SCT
18:20 81.4 °F 66.6 °F 29.98 in North 5.0 mph 5.0 mph 61% 0.00 in WeatherDisplay:10.37 W/m2 SCT
18:25 81.0 °F 67.2 °F 29.98 in North 5.0 mph 5.0 mph 63% 0.00 in WeatherDisplay:10.37 W/m2 SCT
18:30 80.6 °F 67.3 °F 29.98 in North 5.0 mph 5.0 mph 64% 0.00 in WeatherDisplay:10.37 W/m2 SCT
18:40 79.9 °F 67.1 °F 29.99 in North 5.0 mph 5.0 mph 65% 0.00 in WeatherDisplay:10.37 W/m2 SCT
18:45 79.8 °F 67.4 °F 29.99 in North 5.0 mph 5.0 mph 66% 0.00 in WeatherDisplay:10.37 W/m2 SCT
18:50 79.6 °F 66.8 °F 29.99 in North 5.0 mph 5.0 mph 65% 0.00 in WeatherDisplay:10.37 W/m2 SCT
18:55 79.4 °F 67.5 °F 29.99 in North 5.0 mph 5.0 mph 67% 0.00 in WeatherDisplay:10.37 W/m2 SCT
19:00 79.1 °F 67.2 °F 29.99 in North 5.0 mph 5.0 mph 67% 0.00 in WeatherDisplay:10.37 W/m2 SCT
19:05 78.9 °F 67.0 °F 30.00 in North 5.0 mph 5.0 mph 67% 0.00 in WeatherDisplay:10.37 W/m2 SCT
19:10 78.9 °F 67.4 °F 30.00 in North 5.0 mph 5.0 mph 68% 0.00 in WeatherDisplay:10.37 W/m2 SCT
19:20 78.7 °F 66.8 °F 30.00 in NNW 7.0 mph 7.0 mph 67% 0.00 in WeatherDisplay:10.37 W/m2 SCT
19:25 78.6 °F 67.2 °F 30.00 in NNW 7.0 mph 7.0 mph 68% 0.00 in WeatherDisplay:10.37 W/m2 SCT
19:30 78.3 °F 66.4 °F 30.01 in NNW 7.0 mph 7.0 mph 67% 0.00 in WeatherDisplay:10.37 W/m2 SCT
19:40 77.8 °F 66.4 °F 30.01 in NNW 7.0 mph 7.0 mph 68% 0.00 in WeatherDisplay:10.37 W/m2 SCT
19:45 77.6 °F 66.2 °F 30.01 in NNW 7.0 mph 7.0 mph 68% 0.00 in WeatherDisplay:10.37 W/m2 SCT
19:50 77.4 °F 66.4 °F 30.01 in NNW 7.0 mph 7.0 mph 69% 0.00 in WeatherDisplay:10.37 W/m2 SCT
19:55 77.1 °F 66.1 °F 30.01 in NNW 7.0 mph 7.0 mph 69% 0.00 in WeatherDisplay:10.37 W/m2 SCT
20:00 76.9 °F 66.3 °F 30.01 in NNW 7.0 mph 7.0 mph 70% 0.00 in WeatherDisplay:10.37 W/m2 SCT
20:05 76.6 °F 66.1 °F 30.01 in NNW 7.0 mph 7.0 mph 70% 0.00 in WeatherDisplay:10.37 W/m2 SCT
20:10 76.4 °F 65.9 °F 30.01 in NNW 7.0 mph 7.0 mph 70% 0.00 in WeatherDisplay:10.37 W/m2 SCT
20:15 76.2 °F 66.1 °F 30.02 in NNW 9.0 mph 9.0 mph 71% 0.00 in WeatherDisplay:10.37 W/m2 SCT
20:20 75.9 °F 65.8 °F 30.02 in NNW 9.0 mph 9.0 mph 71% 0.00 in WeatherDisplay:10.37 W/m2 SCT
20:25 75.5 °F 65.5 °F 30.02 in NNW 9.0 mph 9.0 mph 71% 0.00 in WeatherDisplay:10.37 W/m2 SCT
20:30 75.3 °F 64.8 °F 30.02 in NNW 9.0 mph 9.0 mph 70% 0.00 in WeatherDisplay:10.37 W/m2 SCT
20:35 75.1 °F 65.1 °F 30.02 in NNW 9.0 mph 9.0 mph 71% 0.00 in WeatherDisplay:10.37 W/m2 SCT
20:40 74.9 °F 64.5 °F 30.02 in NNW 9.0 mph 9.0 mph 70% 0.00 in WeatherDisplay:10.37 W/m2 SCT
20:45 74.7 °F 64.6 °F 30.02 in NNW 9.0 mph 9.0 mph 71% 0.00 in WeatherDisplay:10.37 W/m2 SCT
20:50 74.4 °F 64.8 °F 30.02 in NNW 9.0 mph 9.0 mph 72% 0.00 in WeatherDisplay:10.37 W/m2 SCT
20:55 74.1 °F 64.1 °F 30.02 in NNW 9.0 mph 9.0 mph 71% 0.00 in WeatherDisplay:10.37 W/m2 SCT
21:00 73.9 °F 64.3 °F 30.03 in NNW 9.0 mph 9.0 mph 72% 0.00 in WeatherDisplay:10.37 W/m2 SCT
21:05 73.8 °F 64.2 °F 30.03 in NNW 9.0 mph 9.0 mph 72% 0.00 in WeatherDisplay:10.37 W/m2 SCT
21:10 73.7 °F 63.7 °F 30.03 in NNW 9.0 mph 9.0 mph 71% 0.00 in WeatherDisplay:10.37 W/m2 SCT
21:15 73.7 °F 63.7 °F 30.03 in NNW 6.0 mph 9.0 mph 71% 0.00 in WeatherDisplay:10.37 W/m2 FEW
21:20 73.6 °F 63.6 °F 30.03 in NNW 6.0 mph 6.0 mph 71% 0.00 in WeatherDisplay:10.37 W/m2 FEW
21:25 73.5 °F 63.9 °F 30.03 in NNW 6.0 mph 6.0 mph 72% 0.00 in WeatherDisplay:10.37 W/m2 FEW
21:30 73.3 °F 63.8 °F 30.03 in NNW 6.0 mph 6.0 mph 72% 0.00 in WeatherDisplay:10.37 W/m2 FEW
21:35 73.3 °F 63.3 °F 30.04 in NNW 6.0 mph 6.0 mph 71% 0.00 in WeatherDisplay:10.37 W/m2 FEW
21:40 73.2 °F 63.6 °F 30.04 in NNW 6.0 mph 6.0 mph 72% 0.00 in WeatherDisplay:10.37 W/m2 FEW
21:45 73.0 °F 63.5 °F 30.04 in NNW 6.0 mph 6.0 mph 72% 0.00 in WeatherDisplay:10.37 W/m2 FEW
21:50 72.9 °F 63.7 °F 30.04 in NNW 6.0 mph 6.0 mph 73% 0.00 in WeatherDisplay:10.37 W/m2 FEW
21:55 72.7 °F 63.5 °F 30.04 in NNW 6.0 mph 6.0 mph 73% 0.00 in WeatherDisplay:10.37 W/m2 FEW
22:00 72.5 °F 63.7 °F 30.04 in NNW 6.0 mph 6.0 mph 74% 0.00 in WeatherDisplay:10.37 W/m2 FEW
22:05 72.3 °F 63.5 °F 30.04 in NNW 6.0 mph 6.0 mph 74% 0.00 in WeatherDisplay:10.37 W/m2 FEW
22:10 72.2 °F 63.8 °F 30.04 in NNW 6.0 mph 6.0 mph 75% 0.00 in WeatherDisplay:10.37 W/m2 FEW
22:15 72.1 °F 63.7 °F 30.04 in North 6.0 mph 6.0 mph 75% 0.00 in WeatherDisplay:10.37 W/m2 FEW
22:20 71.9 °F 63.5 °F 30.05 in North 6.0 mph 6.0 mph 75% 0.00 in WeatherDisplay:10.37 W/m2 FEW
22:25 71.7 °F 63.7 °F 30.05 in North 6.0 mph 6.0 mph 76% 0.00 in WeatherDisplay:10.37 W/m2 FEW
22:30 71.5 °F 63.5 °F 30.05 in North 6.0 mph 6.0 mph 76% 0.00 in WeatherDisplay:10.37 W/m2 FEW
22:35 71.3 °F 63.3 °F 30.05 in North 6.0 mph 6.0 mph 76% 0.00 in WeatherDisplay:10.37 W/m2 FEW
22:40 71.1 °F 63.5 °F 30.05 in North 6.0 mph 6.0 mph 77% 0.00 in WeatherDisplay:10.37 W/m2 FEW
22:45 70.9 °F 63.4 °F 30.05 in North 6.0 mph 6.0 mph 77% 0.00 in WeatherDisplay:10.37 W/m2 FEW
22:50 70.8 °F 63.6 °F 30.05 in North 6.0 mph 6.0 mph 78% 0.00 in WeatherDisplay:10.37 W/m2 FEW
22:55 70.7 °F 63.5 °F 30.05 in North 6.0 mph 6.0 mph 78% 0.00 in WeatherDisplay:10.37 W/m2 FEW
23:00 70.6 °F 63.8 °F 30.05 in North 6.0 mph 6.0 mph 79% 0.00 in WeatherDisplay:10.37 W/m2 FEW
23:05 70.5 °F 63.7 °F 30.05 in North 6.0 mph 6.0 mph 79% 0.00 in WeatherDisplay:10.37 W/m2 FEW
23:10 70.4 °F 63.5 °F 30.06 in North 6.0 mph 6.0 mph 79% 0.00 in WeatherDisplay:10.37 W/m2 FEW
23:15 70.3 °F 63.8 °F 30.06 in North 6.0 mph 6.0 mph 80% 0.00 in WeatherDisplay:10.37 W/m2 FEW
23:20 70.2 °F 63.7 °F 30.06 in North 6.0 mph 6.0 mph 80% 0.00 in WeatherDisplay:10.37 W/m2 FEW
23:25 70.1 °F 63.6 °F 30.05 in North 6.0 mph 6.0 mph 80% 0.00 in WeatherDisplay:10.37 W/m2 FEW
23:30 70.1 °F 64.0 °F 30.06 in North 6.0 mph 6.0 mph 81% 0.00 in WeatherDisplay:10.37 W/m2 FEW
23:40 70.1 °F 64.0 °F 30.06 in North 6.0 mph 6.0 mph 81% 0.00 in WeatherDisplay:10.37 W/m2 FEW
23:45 70.2 °F 64.1 °F 30.06 in North 6.0 mph 6.0 mph 81% 0.00 in WeatherDisplay:10.37 W/m2 FEW
23:50 70.3 °F 64.2 °F 30.06 in North 6.0 mph 6.0 mph 81% 0.00 in WeatherDisplay:10.37 W/m2 FEW
23:55 70.5 °F 64.0 °F 30.06 in North 6.0 mph 6.0 mph 80% 0.00 in WeatherDisplay:10.37 W/m2 FEW
Piedmont Bend
Compliments of Weather Underground - 4 mb